Fort Sill, OK

7:27 PM CDT on April 23, 2018 (GMT -0500)
Post Army Air Field

Weather History for KFSI - March, 2013

Change the Weather History Date:

Friday, March 1, 2013

  Actual Average Record
Temperature  
Mean Temperature 38 °F -  
Max Temperature 47 °F 62 °F 93 °F (2006)
Min Temperature 28 °F 36 °F 12 °F (1962)
Degree Days  
Heating Degree Days 28    
Moisture  
Dew Point 28 °F    
Average Humidity 70    
Maximum Humidity 86    
Minimum Humidity 48    
Precipitation  
Precipitation 0.00 in - - ()
Sea Level Pressure  
Sea Level Pressure 30.27 in    
Wind  
Wind Speed 6 mph (NNE)    
Max Wind Speed 20 mph    
Max Gust Speed 20 mph    
Visibility 10 miles    
Events      
Averages and records for this station are not official NWS values.
T = Trace of Precipitation, MM = Missing Value Source: NWS Daily Summary

Daily Weather History Graph

Daily Weather History Graph

Search for Another Location

Airport or City:

Astronomy

Mar. 01, 2013 Rise Set
Actual Time 7:02 AM CST 6:29 PM CST
Civil Twilight 6:37 AM CST 6:55 PM CST
Nautical Twilight 6:07 AM CST 7:24 PM CST
Astronomical Twilight 5:38 AM CST 7:53 PM CST
Moon 10:51 PM CST (3/1) 9:02 AM CST (3/1)
Length of Visible Light 12h 18m
Length of Day
11h 27m
Waning Gibbous, 83% of the Moon is Illuminated
Mar 1
Waning Gibbous
Mar 4
Last Quarter
Mar 11
New
Mar 19
First Quarter
Mar 27
Full

Hourly Weather History & Observations

Time (CST) Temp. Windchill Dew Point Humidity Pressure Visibility Wind Dir Wind Speed Gust Speed Precip Events Conditions
12:55 AM 33.4 °F - 25.7 °F 73% 30.23 in 10.0 mi Calm Calm - N/A   Clear
1:55 AM 29.8 °F 23.0 °F 25.0 °F 82% 30.24 in 10.0 mi North 6.9 mph - N/A   Clear
2:55 AM 29.1 °F 21.3 °F 24.1 °F 81% 30.24 in 10.0 mi North 8.1 mph - N/A   Partly Cloudy
3:55 AM 28.9 °F 21.9 °F 24.1 °F 82% 30.23 in 10.0 mi NNE 6.9 mph - N/A   Clear
4:55 AM 28.8 °F 22.6 °F 25.2 °F 86% 30.24 in 10.0 mi North 5.8 mph - N/A   Scattered Clouds
5:55 AM 30.7 °F 23.3 °F 26.6 °F 85% 30.24 in 10.0 mi North 8.1 mph - N/A   Mostly Cloudy
6:55 AM 30.7 °F - 25.5 °F 81% 30.25 in 10.0 mi Calm Calm - N/A   Mostly Cloudy
7:55 AM 31.5 °F 28.1 °F 27.0 °F 83% 30.27 in 10.0 mi East 3.5 mph - N/A   Mostly Cloudy
8:55 AM 33.6 °F 26.8 °F 28.9 °F 83% 30.31 in 10.0 mi NNE 8.1 mph - N/A   Scattered Clouds
9:55 AM 37.0 °F 31.0 °F 29.3 °F 74% 30.31 in 10.0 mi NNE 8.1 mph - N/A   Overcast
10:55 AM 38.3 °F 33.9 °F 29.3 °F 70% 30.30 in 10.0 mi NE 5.8 mph - N/A   Overcast
11:55 AM 43.3 °F - 29.1 °F 57% 30.28 in 10.0 mi Calm Calm - N/A   Partly Cloudy
12:40 PM 46.4 °F 41.5 °F 32.0 °F 57% 30.27 in 10.0 mi NNE 10.4 mph - N/A   Scattered Clouds
12:58 PM 45.9 °F 39.7 °F 31.1 °F 56% 30.24 in 10.0 mi NNE 13.8 mph - N/A   Mostly Cloudy
1:58 PM 47.7 °F - 31.3 °F 53% 30.23 in 10.0 mi NNE 13.8 mph 19.6 mph N/A   Clear
2:58 PM 47.7 °F - 30.7 °F 52% 30.23 in 10.0 mi NNE 19.6 mph - N/A   Overcast
3:58 PM 47.8 °F - 30.7 °F 52% 30.23 in 10.0 mi North 17.3 mph - N/A   Partly Cloudy
4:58 PM 46.9 °F - 28.2 °F 48% 30.25 in 10.0 mi North 11.5 mph - N/A   Clear
5:55 PM 44.2 °F 37.6 °F 27.5 °F 52% 30.25 in 10.0 mi North 13.8 mph - N/A   Clear
5:56 PM 44.6 °F 38.1 °F 26.6 °F 49% 30.25 in 10.0 mi North 13.8 mph - N/A   Clear
6:58 PM 40.1 °F 34.7 °F 28.0 °F 62% 30.26 in 10.0 mi NNE 8.1 mph - N/A   Clear
7:58 PM 37.6 °F 33.1 °F 28.2 °F 69% 30.28 in 10.0 mi NE 5.8 mph - N/A   Clear
8:58 PM 34.7 °F 28.8 °F 28.2 °F 77% 30.30 in 10.0 mi NNE 6.9 mph - N/A   Clear
9:58 PM 32.2 °F 27.7 °F 27.3 °F 82% 30.32 in 10.0 mi NNE 4.6 mph - N/A   Clear
10:58 PM 30.9 °F 27.5 °F 26.8 °F 85% 30.36 in 10.0 mi North 3.5 mph - N/A   Clear
11:58 PM 30.2 °F - 26.2 °F 85% 30.36 in 10.0 mi West 2.3 mph - N/A   Clear